Regional Weather Roundup
Issued by NWS Green Bay, WI

Home | Current Version | Previous Version | Text Only | Print | Product List | Glossary On
Versions: 1 2 3 4 5 6 7 8 9 10 11 12 13 14 15 16 17 18 19 20 21 22 23 24 25 26 27 28 29 30 31 32 33 34 35 36 37 38 39 40 41 42 43 44 45 46 47 48 49 50
000
ASUS43 KGRB 280700
RWRGRB

NORTH-CENTRAL AND NORTHEAST WISCONSIN REGIONAL WEATHER ROUNDUP
NATIONAL WEATHER SERVICE GREEN BAY WI
200 AM CDT FRI AUG 28 2015

WIZ005-009-010>012-018-019-280800-
NORTH CENTRAL WISCONSIN

CITY           SKY/WX    TMP DP  RH WIND       PRES   REMARKS
IRONWOOD       PTCLDY    63  57  82 SW8       29.99S
MANITOWISH WTR NOT AVBL
ARBOR VITAE    NOT AVBL
EAGLE RIVER    NOT AVBL
LAND O LAKES   NOT AVBL
RHINELANDER    PTCLDY    59  56  89 SW5       30.07F
PHILLIPS       PTCLDY    60  57  92 S5        30.04S
ANTIGO         NOT AVBL
TOMAHAWK       NOT AVBL
MERRILL        MOCLDY    54  54 100 CALM      30.07S
$$

WIZ013-073-280800-
NORTHEAST WISCONSIN

CITY           SKY/WX    TMP DP  RH WIND       PRES   REMARKS
IRON MOUNTAIN  PTCLDY    56  55  97 SE3       30.05S
MARINETTE      CLEAR     61  54  77 SW9       30.06S
$$

WIZ017-030-035>037-045-280800-
CENTRAL WISCONSIN

CITY           SKY/WX    TMP DP  RH WIND       PRES   REMARKS
MEDFORD        NOT AVBL
WAUSAU         MOCLDY    62  58  86 S7        30.06S
MOSINEE        NOT AVBL
MARSHFIELD     CLOUDY    61  56  83 SW5       30.08R
WISC RAPIDS    MOCLDY    63  56  78 S5        30.09R
STEVENS POINT  NOT AVBL
WAUPACA        NOT AVBL
SHAWANO        NOT AVBL
CLINTONVILLE   PTCLDY    55  55 100 S3        30.08F
WAUTOMA        NOT AVBL
$$

WIZ038-039-048-051-280800-
FOX VALLEY

CITY           SKY/WX    TMP DP  RH WIND       PRES   REMARKS
NWS GREEN BAY  PTCLDY    58  55  90 S6        30.09F
APPLETON       NOT AVBL
OSHKOSH        PTCLDY    59  54  83 S10       30.09F
FOND DU LAC    PTCLDY    58  53  84 S6        30.10F
$$

WIZ022-050-052-280800-
EAST CENTRAL WISCONSIN

CITY           SKY/WX    TMP DP  RH WIND       PRES   REMARKS
EPHRAIM        FAIR      57  53  84 S3        30.08R
STURGEON BAY   PTCLDY    59  52  77 S10       30.11S
MANITOWOC      NOT AVBL
SHEBOYGAN      CLEAR     54  51  90 S3        30.11F
$$

LMZ563-521-522-541>543-280800-
LAKESHORE

STATION/POSITION TIME  TEMP    WIND        PRES    VSBY  WAVE
                       AIR SEA DIR/SP/G                  HT/PER
                 (UTC) (F)     (DEG/KT/KT) (MB)    (MI)  (FT/S)
SHEBOYGAN LKSHOR 0600   61     210/  9/  9 1020.2R
KEWAUNEE LKSHORE 0600   61     210/  9/ 12 1018.3R
ALGOMA MARINA    0629             CALM       N/A
NORTHPORT PIER   0600   62     180/  5/ 10 1018.3S
N MID LAKE BUOY  0550   63 64  210/ 17/ 19 1018.3F         3/ 4
S GREEN BAY BUOY 0600   63     180/ 12/ 16 1019.9
SISTER BAY LKSHO 0634   62     180/ 12/ 15   N/A
CHAMBERS ISLAND  0600   62     180/  3/  9 1018.3S
MENOMINEE LKSHOR 0600   62     180/  7/  9 1017.2R
$$


USA.gov is the U.S. government's official web portal to all federal, state and local government web resources and services.